Simultaneous Nadir Overpasses (SNOs) Predictions

Prediction of SNOs between METOP-A and TERRA Satellite Orbit:

Table of predicted SNOs for the next 14.0 days since TLE Epoch: 5/9/2016
Index Date (METOP-A) Time (METOP-A) Lat,Lon (METOP-A) SZA (METOP-A ) Date (TERRA) Time (TERRA) Lat,Lon (TERRA) SZA (TERRA ) Distance(km) Time Diff (sec)
1 05/10/2016 19:39:17 81.32, -67.18 66.47 05/10/2016 19:40:04 81.32, -67.27 66.48 1.53 47
2 05/10/2016 20:29:57 -81.32, 100.41 113.51 05/10/2016 20:29:31 -81.32, 100.29 113.54 2.12 26
3 05/13/2016 15:13:40 81.31, -1.21 65.72 05/13/2016 15:14:21 81.31, -1.01 65.76 3.27 41
4 05/13/2016 16:04:19 -81.32, 166.78 114.21 05/13/2016 16:03:47 -81.33, 166.95 114.20 2.95 32
5 05/16/2016 10:48:02 81.32, 65.53 65.11 05/16/2016 10:48:38 81.32, 65.49 65.12 0.54 36
6 05/1
